Location: Aressy
(43.2833°N, 0.3167°W)
Time: 18:57:41
(UTC+00:00)

Cosmos 2278 Rocket - Pass Details

Date: 28 January 2021
Orbit: 840 x 847 km, 71.0° (Epoch: 03 March)

Event Time Altitude Azimuth Distance (km) Brightness Sun altitude
Rises 19:47:37 0° 241° (WSW) 3,394 6.2 -29.1°
Reaches altitude 10° 19:50:30 10° 255° (WSW) 2,464 5.5 -29.6°
Maximum altitude 19:55:04 25° 309° (NW) 1,662 4.2 -30.4°
Enters shadow 19:59:07 12° 359° (N) 2,319 4.5 -31.1°
